Date,TemperatureHighF,TemperatureAvgF,TemperatureLowF,DewpointHighF,DewpointAvgF,DewpointLowF,HumidityHigh,HumidityAvg,HumidityLow,PressureMaxIn,PressureMinIn,WindSpeedMaxMPH,WindSpeedAvgMPH,GustSpeedMaxMPH,PrecipitationSumIn
2013-5-1,50,40,31,23,10,2,49,28,14,0.00,40.00,19,7,24,0.00
2013-5-2,60,44,26,20,12,6,59,29,13,0.00,40.00,12,5,16,0.00
2013-5-3,70,52,31,25,16,7,67,28,9,0.00,40.00,11,6,16,0.00
2013-5-4,68,56,36,26,17,8,58,22,12,0.00,40.00,11,6,14,0.00
2013-5-5,75,60,48,35,26,16,59,30,10,0.00,40.00,26,7,41,0.00
2013-5-6,64,56,49,44,31,18,77,41,18,0.00,40.00,23,6,26,0.00
2013-5-7,64,50,41,42,36,27,88,63,25,0.00,40.00,25,7,37,0.00
2013-5-8,62,47,39,44,39,33,91,74,37,0.00,40.00,9,4,17,0.00
2013-5-9,69,51,33,44,35,21,95,61,17,0.00,40.00,15,4,27,0.00
2013-5-10,74,53,33,37,28,-100,89,49,14,0.00,40.00,18,5,22,0.00
2013-5-11,75,55,33,38,28,-100,88,46,11,0.00,40.00,25,5,41,0.00
2013-5-12,79,59,31,37,30,25,85,41,13,0.00,40.00,15,5,18,0.00
2013-5-13,84,61,35,40,31,24,85,43,11,0.00,40.00,16,5,20,0.00
2013-5-14,82,63,41,38,32,23,74,38,11,0.00,40.00,12,5,17,0.00
2013-5-15,79,61,41,37,31,22,74,40,11,0.00,40.00,22,6,27,0.00
2013-5-16,77,57,41,41,17,-100,80,39,14,0.00,40.00,23,6,62,0.00
2013-5-17,66,54,43,44,34,-100,78,54,25,0.00,40.00,25,6,37,0.00
2013-5-18,60,51,40,45,38,25,90,64,27,0.00,40.00,23,6,29,0.00
2013-5-19,59,47,34,41,35,29,91,66,33,0.00,40.00,19,5,24,0.00
2013-5-20,62,51,43,41,38,35,88,63,37,0.00,40.00,13,5,17,0.00
2013-5-21,70,53,33,41,33,23,94,54,16,0.00,40.00,14,5,20,0.00
2013-5-22,79,60,33,35,26,15,85,37,10,0.00,40.00,19,8,32,0.00
2013-5-23,72,56,33,35,28,14,86,40,11,0.00,40.00,24,9,37,0.00
2013-5-24,71,54,30,33,23,11,84,37,10,0.00,40.00,19,6,27,0.00
2013-5-25,76,58,34,33,22,11,74,33,9,0.00,40.00,20,8,29,0.00
2013-5-26,77,60,36,36,20,11,63,27,8,0.00,40.00,19,7,33,0.00
2013-5-27,70,59,40,36,27,18,64,32,14,0.00,40.00,15,6,27,0.00
2013-5-28,63,51,42,43,36,28,88,59,28,0.00,40.00,20,6,30,0.00
2013-5-29,59,49,37,42,36,26,94,64,28,0.00,40.00,21,5,26,0.00
2013-5-30,63,50,35,40,31,20,92,56,20,0.00,40.00,16,6,23,0.00
2013-5-31,67,50,30,32,21,9,83,39,11,0.00,40.00,14,6,19,0.00